period_start,C,m1,H,J0,J1,J2,J3,J4,J5,JA,JB,JC,JD,JJ,JK,JN,#
2017-08-05 00:02:42,0.00,0.30,0.00,22.99,27.02,29.99,13.95,46.51,1016.62,2034.00,3407.05,3009.00,3439.00,599.83,595.89,28.79,0000 0000 0000 0000 000000
2017-08-05 00:07:43,0.00,0.30,0.00,23.01,27.04,29.97,13.95,46.51,1016.62,2033.99,3406.99,3008.98,3438.95,599.83,595.76,28.84,0000 0000 0000 0000 000000
2017-08-05 00:12:44,0.06,0.30,0.00,23.03,27.05,30.00,13.93,46.53,1016.57,2033.99,3406.13,3008.28,3437.82,599.59,595.68,28.89,0000 0000 0000 0000 000000
2017-08-05 00:17:45,0.25,0.32,0.00,23.05,27.07,30.02,13.90,46.50,1016.35,2033.99,3402.22,3004.29,3432.62,599.83,595.61,28.94,0000 0000 0000 0000 000000
2017-08-05 00:22:46,0.02,0.32,0.00,23.08,27.08,30.05,13.93,46.30,1016.24,2033.99,3401.17,3003.66,3432.00,600.00,595.58,28.99,0000 0000 0000 0000 000000
2017-08-05 00:27:47,0.01,0.32,0.00,23.11,27.10,30.05,13.96,46.39,1016.16,2033.98,3401.00,3003.08,3432.00,599.95,595.65,29.04,0000 0000 0000 0000 000000
2017-08-05 00:32:48,0.01,0.32,0.00,23.12,27.11,30.07,14.00,46.38,1016.14,2033.95,3400.91,3003.01,3431.66,600.48,596.13,29.09,0000 0000 0000 0000 000000
2017-08-05 00:37:50,0.05,0.32,0.00,23.14,27.12,30.09,13.96,46.49,1016.14,2033.97,3400.10,3002.24,3430.78,599.95,595.30,29.14,0000 0000 0000 0000 000000
2017-08-05 00:42:51,0.00,0.33,0.00,23.16,27.15,30.11,13.93,46.63,1016.13,2033.84,3399.57,3002.00,3430.07,599.70,595.03,29.19,0000 0000 0000 0000 000000
2017-08-05 00:47:52,-0.02,0.32,0.00,23.18,27.16,30.13,13.88,46.61,1016.13,2033.46,3399.02,3001.94,3429.98,599.72,595.16,29.24,0000 0000 0000 0000 000000
2017-08-05 00:52:54,0.01,0.32,0.00,23.19,27.17,30.13,13.93,46.63,1016.13,2033.17,3398.91,3001.47,3429.63,599.85,595.31,29.29,0000 0000 0000 0000 000000
2017-08-05 00:57:55,0.01,0.33,0.00,23.20,27.20,30.14,13.95,46.59,1016.13,2033.10,3398.29,3001.06,3429.07,600.12,595.46,29.34,0000 0000 0000 0000 000000
2017-08-05 01:02:56,0.00,0.33,0.00,23.23,27.21,30.17,13.94,46.58,1016.13,2033.07,3398.01,3001.00,3429.00,600.05,595.33,29.39,0000 0000 0000 0000 000000
2017-08-05 01:07:57,0.01,0.33,0.00,23.24,27.22,30.17,13.94,46.69,1016.13,2033.05,3397.81,3000.97,3428.93,600.16,595.33,29.44,0000 0000 0000 0000 000000
2017-08-05 01:12:59,0.03,0.33,0.00,23.27,27.25,30.21,13.88,46.42,1016.13,2033.00,3397.08,3000.62,3428.26,600.01,595.17,29.49,0000 0000 0000 0000 000000
2017-08-05 01:18:00,0.01,0.33,0.00,23.28,27.26,30.22,13.94,46.59,1016.13,2033.00,3396.99,3000.05,3428.00,599.89,595.01,29.54,0000 0000 0000 0000 000000
2017-08-05 01:23:02,0.01,0.33,0.00,23.30,27.27,30.24,13.88,46.54,1016.13,2033.00,3396.47,3000.00,3427.98,600.02,595.27,29.59,0000 0000 0000 0000 000000
2017-08-05 01:28:03,0.01,0.33,0.00,23.32,27.30,30.26,13.97,46.58,1016.12,2033.00,3396.06,2999.97,3427.44,600.17,595.18,29.64,0000 0000 0000 0000 000000
2017-08-05 01:33:04,0.01,0.33,0.00,23.34,27.31,30.27,13.95,46.46,1015.95,2033.00,3395.99,2999.80,3427.03,599.87,595.02,29.69,0000 0000 0000 0000 000000
2017-08-05 01:38:05,0.02,0.33,0.00,23.35,27.33,30.29,13.93,46.42,1015.70,2032.96,3395.42,2999.11,3426.97,599.85,594.71,29.74,0000 0000 0000 0000 000000
2017-08-05 01:43:06,0.01,0.33,0.00,23.37,27.35,30.31,13.88,46.34,1015.66,2032.98,3395.02,2999.01,3426.71,600.03,594.82,29.79,0000 0000 0000 0000 000000
2017-08-05 01:48:07,-0.00,0.33,0.00,23.37,27.37,30.33,13.85,46.49,1015.65,2032.92,3394.96,2998.98,3426.10,599.47,594.05,29.84,0000 0000 0000 0000 000000
2017-08-05 01:53:09,0.01,0.33,0.00,23.40,27.38,30.35,13.88,46.58,1015.64,2032.81,3394.34,2998.84,3426.00,600.01,594.63,29.89,0000 0000 0000 0000 000000
2017-08-05 01:58:10,-0.02,0.33,0.00,23.41,27.40,30.35,13.94,46.46,1015.64,2032.52,3394.01,2998.24,3425.85,600.27,594.91,29.94,0000 0000 0000 0000 000000
2017-08-05 02:03:11,-0.01,0.33,0.00,23.44,27.42,30.37,13.96,46.63,1015.65,2032.11,3393.73,2998.00,3425.15,599.92,594.33,29.99,0000 0000 0000 0000 000000
2017-08-05 02:08:12,0.00,0.33,0.00,23.46,27.44,30.39,13.87,46.46,1015.64,2032.02,3393.05,2997.97,3425.00,599.85,594.37,30.04,0000 0000 0000 0000 000000
2017-08-05 02:13:13,0.01,0.33,0.00,23.47,27.45,30.41,13.86,46.39,1015.64,2032.01,3392.99,2997.73,3424.94,599.91,594.29,30.09,0000 0000 0000 0000 000000
2017-08-05 02:18:15,0.03,0.33,0.00,23.47,27.47,30.42,13.96,46.57,1015.60,2032.01,3392.66,2997.11,3424.24,600.24,594.66,30.14,0000 0000 0000 0000 000000
2017-08-05 02:23:16,0.00,0.33,0.00,23.49,27.49,30.45,13.93,46.31,1015.54,2032.00,3392.05,2997.00,3424.01,600.03,594.43,30.19,0000 0000 0000 0000 000000
2017-08-05 02:28:17,0.00,0.33,0.00,23.52,27.50,30.46,13.88,46.45,1015.55,2032.00,3392.00,2997.00,3424.00,600.03,594.40,30.24,0000 0000 0000 0000 000000
2017-08-05 02:33:18,0.02,0.33,0.00,23.54,27.52,30.48,13.94,46.56,1015.61,2032.00,3391.56,2996.90,3423.74,599.99,594.38,30.29,0000 0000 0000 0000 000000
2017-08-05 02:38:19,0.03,0.34,0.00,23.56,27.54,30.52,13.89,46.48,1015.58,2032.00,3391.02,2996.27,3423.09,599.59,593.84,30.34,0000 0000 0000 0000 000000
2017-08-05 02:43:21,0.00,0.34,0.00,23.58,27.56,30.51,13.89,46.43,1015.33,2031.99,3390.99,2996.01,3422.98,599.98,594.04,30.39,0000 0000 0000 0000 000000
2017-08-05 02:48:22,0.02,0.34,0.00,23.61,27.57,30.53,13.88,46.38,1015.20,2031.97,3390.42,2995.99,3422.39,600.00,593.93,30.44,0000 0000 0000 0000 000000
2017-08-05 02:53:24,0.00,0.34,0.00,23.62,27.60,30.54,13.84,46.44,1015.20,2031.96,3390.02,2995.85,3422.02,599.87,593.88,30.49,0000 0000 0000 0000 000000
2017-08-05 02:58:25,0.01,0.34,0.00,23.65,27.61,30.56,13.83,46.37,1015.16,2031.75,3389.99,2995.20,3422.00,600.23,594.14,30.54,0000 0000 0000 0000 000000
2017-08-05 03:03:27,-0.02,0.34,0.00,23.70,27.63,30.56,13.85,46.49,1015.15,2031.40,3389.49,2995.00,3421.70,599.84,593.62,30.59,0000 0000 0000 0000 000000
2017-08-05 03:08:28,-0.01,0.34,0.00,23.77,27.66,30.54,13.87,46.42,1015.15,2031.14,3389.02,2994.99,3421.06,599.90,593.52,30.64,0000 0000 0000 0000 000000
2017-08-05 03:13:29,0.01,0.34,0.00,23.86,27.69,30.47,13.87,46.22,1015.15,2031.14,3388.92,2994.75,3421.00,599.88,593.35,30.69,0000 0000 0000 0000 000000
2017-08-05 03:18:31,0.03,0.34,0.00,23.93,27.72,30.41,13.90,46.49,1015.15,2031.01,3388.19,2994.06,3420.49,600.19,593.44,30.74,0000 0000 0000 0000 000000
2017-08-05 03:23:32,0.00,0.34,0.00,23.99,27.75,30.37,13.78,46.29,1015.10,2031.00,3387.99,2993.99,3420.01,599.81,592.88,30.79,0000 0000 0000 0000 000000
2017-08-05 03:28:33,0.01,0.34,0.00,24.05,27.78,30.42,13.87,46.20,1015.02,2030.99,3387.72,2993.89,3419.99,600.01,592.87,30.84,0000 0000 0000 0000 000000
2017-08-05 03:33:35,0.04,0.34,0.00,24.14,27.82,30.43,13.88,46.12,1014.96,2030.99,3387.05,2993.19,3419.36,599.93,592.67,30.89,0000 0000 0000 0000 000000
2017-08-05 03:38:36,-0.00,0.34,0.00,24.21,27.86,30.41,13.84,46.06,1014.78,2030.89,3386.78,2992.99,3419.00,600.04,592.51,30.94,0000 0000 0000 0000 000000
2017-08-05 03:43:38,-0.01,0.34,0.00,24.30,27.90,30.45,13.84,46.17,1014.69,2030.57,3386.11,2992.89,3418.74,599.85,592.21,30.99,0000 0000 0000 0000 000000
2017-08-05 03:48:39,-0.00,0.34,0.00,24.36,27.94,30.48,13.87,46.12,1014.68,2030.11,3385.96,2992.14,3418.04,600.11,592.42,31.04,0000 0000 0000 0000 000000
2017-08-05 03:53:40,0.01,0.34,0.00,24.42,27.99,30.54,13.75,46.06,1014.68,2030.00,3385.18,2992.00,3417.86,600.11,592.17,31.09,0000 0000 0000 0000 000000
2017-08-05 03:58:42,0.01,0.34,0.00,24.47,28.03,30.61,13.86,46.13,1014.69,2030.00,3384.99,2991.80,3417.07,600.34,592.16,31.15,0000 0000 0000 0000 000000
2017-08-05 04:03:43,0.03,0.34,0.00,24.51,28.08,30.66,13.77,46.01,1014.71,2030.00,3384.32,2991.10,3416.96,599.71,591.54,31.20,0000 0000 0000 0000 000000
2017-08-05 04:08:44,0.01,0.35,0.00,24.54,28.13,30.74,13.83,45.94,1014.79,2029.94,3383.97,2990.95,3416.18,600.31,592.24,31.25,0000 0000 0000 0000 000000
2017-08-05 04:13:45,-0.02,0.35,0.00,24.57,28.17,30.86,13.84,45.93,1014.82,2029.51,3383.35,2990.32,3415.99,600.12,591.90,31.30,0000 0000 0000 0000 000000
2017-08-05 04:18:47,-0.01,0.34,0.00,24.59,28.21,30.91,13.76,46.06,1014.77,2029.06,3382.97,2990.00,3415.27,599.87,591.71,31.35,0000 0000 0000 0000 000000
2017-08-05 04:23:48,0.03,0.34,0.00,24.61,28.26,31.03,13.75,46.02,1014.76,2029.00,3382.21,2989.63,3414.95,600.01,591.66,31.40,0000 0000 0000 0000 000000
2017-08-05 04:28:50,0.02,0.35,0.00,24.62,28.30,31.20,13.87,46.09,1014.68,2029.00,3381.97,2989.06,3414.37,599.83,591.50,31.45,0000 0000 0000 0000 000000
2017-08-05 04:33:51,0.01,0.35,0.00,24.60,28.34,31.30,13.86,46.16,1014.66,2028.95,3381.32,2988.97,3414.00,599.62,591.36,31.50,0000 0000 0000 0000 000000
2017-08-05 04:38:52,-0.00,0.35,0.00,24.60,28.38,31.37,13.83,46.06,1014.66,2028.67,3380.96,2988.38,3413.48,600.11,591.83,31.55,0000 0000 0000 0000 000000
2017-08-05 04:43:53,-0.02,0.35,0.00,24.60,28.42,31.46,13.84,46.04,1014.66,2028.29,3380.40,2988.01,3413.02,600.32,591.85,31.60,0000 0000 0000 0000 000000
2017-08-05 04:48:54,0.00,0.35,0.00,24.62,28.45,31.54,13.85,46.09,1014.66,2028.01,3379.99,2987.96,3412.84,599.96,591.47,31.65,0000 0000 0000 0000 000000
2017-08-05 04:53:55,0.03,0.35,0.00,24.63,28.49,31.57,13.87,46.06,1014.66,2028.00,3379.66,2987.50,3412.16,600.49,592.12,31.70,0000 0000 0000 0000 000000
2017-08-05 04:58:56,0.01,0.35,0.00,24.66,28.52,31.56,13.81,46.08,1014.65,2028.00,3379.03,2987.02,3411.99,600.10,591.69,31.75,0000 0000 0000 0000 000000
2017-08-05 05:03:58,0.01,0.35,0.00,24.68,28.55,31.62,13.82,46.09,1014.46,2027.99,3378.95,2986.98,3411.51,600.30,591.75,31.80,0000 0000 0000 0000 000000
2017-08-05 05:08:59,0.02,0.35,0.00,24.71,28.58,31.69,13.85,46.02,1014.36,2027.86,3378.15,2986.47,3411.02,599.96,591.25,31.85,0000 0000 0000 0000 000000
2017-08-05 05:14:00,-0.05,0.35,0.00,24.74,28.61,31.67,13.87,46.22,1014.52,2027.23,3377.95,2986.02,3410.79,600.12,591.42,31.90,0000 0000 0000 0000 000000
2017-08-05 05:19:02,0.01,0.35,0.00,24.76,28.65,31.73,13.81,46.12,1014.51,2027.04,3377.28,2985.95,3410.07,599.88,591.18,31.95,0000 0000 0000 0000 000000
2017-08-05 05:24:03,0.01,0.35,0.00,24.78,28.68,31.70,13.80,45.92,1014.27,2027.00,3377.00,2985.52,3409.99,599.74,590.77,32.00,0000 0000 0000 0000 000000
2017-08-05 05:29:04,0.02,0.35,0.00,24.81,28.71,31.76,13.78,46.04,1014.21,2027.00,3376.73,2985.02,3409.55,599.81,590.97,32.05,0000 0000 0000 0000 000000
2017-08-05 05:34:05,0.01,0.35,0.00,24.84,28.74,31.81,13.79,46.10,1014.20,2026.98,3375.71,2984.58,3408.54,599.97,590.92,32.10,0000 0000 0000 0000 000000
2017-08-05 05:39:06,0.41,0.37,0.00,24.87,28.77,31.82,13.86,46.13,1014.18,2026.95,3370.09,2978.54,3401.43,600.04,590.87,32.15,0000 0000 0000 0000 000000
2017-08-05 05:44:08,0.00,0.37,0.00,24.89,28.81,31.87,13.82,46.19,1014.19,2026.47,3368.71,2977.13,3399.74,600.14,591.00,32.20,0000 0000 0000 0000 000000
2017-08-05 05:49:09,0.00,0.37,0.00,24.92,28.84,31.91,13.84,46.15,1014.20,2026.12,3368.03,2976.80,3399.04,599.96,590.79,32.25,0000 0000 0000 0000 000000
2017-08-05 05:54:10,0.01,0.37,0.00,24.95,28.86,31.87,13.81,46.08,1014.18,2026.01,3367.90,2976.09,3398.89,600.14,590.89,32.30,0000 0000 0000 0000 000000
2017-08-05 05:59:12,0.02,0.38,0.00,25.00,28.90,31.94,13.84,46.24,1014.20,2026.00,3367.12,2975.99,3398.14,600.06,590.69,32.35,0000 0000 0000 0000 000000
2017-08-05 06:04:13,0.01,0.38,0.00,25.03,28.93,31.99,13.87,46.04,1014.21,2026.00,3366.99,2975.83,3397.99,600.00,590.61,32.40,0000 0000 0000 0000 000000
2017-08-05 06:09:14,0.03,0.38,0.00,25.06,28.96,31.98,13.81,45.94,1014.20,2025.97,3366.47,2975.17,3397.66,600.08,590.64,32.45,0000 0000 0000 0000 000000
2017-08-05 06:14:16,0.00,0.38,0.00,25.09,28.99,32.02,13.80,46.09,1014.22,2025.85,3366.01,2975.00,3397.05,599.88,590.34,32.50,0000 0000 0000 0000 000000
2017-08-05 06:19:17,-0.04,0.38,0.00,25.12,29.03,32.06,13.84,46.17,1014.42,2025.29,3365.92,2974.92,3396.99,599.89,590.35,32.55,0000 0000 0000 0000 000000
2017-08-05 06:24:19,0.03,0.38,0.00,25.17,29.06,32.05,13.80,46.10,1014.44,2025.07,3365.21,2974.24,3396.40,599.89,590.23,32.61,0000 0000 0000 0000 000000
2017-08-05 06:29:20,0.00,0.38,0.00,25.20,29.09,32.12,13.81,46.13,1014.46,2025.00,3364.98,2974.00,3396.01,600.06,590.44,32.66,0000 0000 0000 0000 000000
2017-08-05 06:34:21,0.02,0.38,0.00,25.22,29.13,32.12,13.83,46.15,1014.43,2025.00,3364.44,2973.93,3395.80,600.20,590.52,32.71,0000 0000 0000 0000 000000
2017-08-05 06:39:23,0.02,0.38,0.00,25.26,29.16,32.14,13.78,46.14,1014.52,2025.00,3364.02,2973.33,3395.11,599.66,590.10,32.76,0000 0000 0000 0000 000000
2017-08-05 06:44:24,0.00,0.38,0.00,25.29,29.19,32.20,13.82,46.16,1014.55,2024.99,3363.96,2973.02,3395.00,600.23,590.46,32.81,0000 0000 0000 0000 000000
2017-08-05 06:49:25,-0.01,0.38,0.00,25.32,29.23,32.22,13.79,46.28,1014.62,2024.75,3363.22,2972.98,3394.57,600.28,590.53,32.86,0000 0000 0000 0000 000000
2017-08-05 06:54:26,-0.01,0.38,0.00,25.36,29.26,32.29,13.85,46.37,1014.54,2024.30,3363.00,2972.55,3394.02,600.04,590.12,32.91,0000 0000 0000 0000 000000
2017-08-05 06:59:28,-0.01,0.38,0.00,25.39,29.30,32.30,13.81,46.07,1014.49,2024.09,3362.76,2972.09,3394.00,600.13,590.19,32.96,0000 0000 0000 0000 000000
2017-08-05 07:04:29,0.01,0.38,0.00,25.41,29.33,32.38,13.83,46.09,1014.52,2024.01,3362.06,2972.00,3393.46,599.98,589.95,33.01,0000 0000 0000 0000 000000
2017-08-05 07:09:30,0.01,0.38,0.00,25.44,29.36,32.40,13.87,46.30,1014.59,2024.00,3361.93,2971.81,3393.01,600.49,590.47,33.06,0000 0000 0000 0000 000000
2017-08-05 07:14:32,0.03,0.38,0.00,25.47,29.39,32.44,13.79,46.38,1014.64,2024.00,3361.16,2971.11,3392.91,599.64,589.54,33.11,0000 0000 0000 0000 000000
2017-08-05 07:19:33,0.01,0.38,0.00,25.50,29.43,32.47,13.80,46.32,1014.66,2023.98,3360.99,2971.00,3392.17,599.99,589.95,33.16,0000 0000 0000 0000 000000
2017-08-05 07:24:34,-0.01,0.38,0.00,25.52,29.46,32.50,13.82,46.45,1014.63,2023.87,3360.52,2970.90,3391.99,600.39,590.19,33.21,0000 0000 0000 0000 000000
2017-08-05 07:29:36,-0.01,0.38,0.00,25.55,29.49,32.51,13.85,46.39,1014.48,2023.34,3360.02,2970.15,3391.52,599.87,589.60,33.26,0000 0000 0000 0000 000000
2017-08-05 07:34:37,-0.01,0.38,0.00,25.57,29.52,32.59,13.79,46.14,1014.33,2023.05,3359.84,2970.00,3391.04,599.97,589.59,33.31,0000 0000 0000 0000 000000
2017-08-05 07:39:38,0.01,0.38,0.00,25.61,29.55,32.58,13.86,46.24,1014.36,2023.01,3359.16,2969.96,3391.00,600.43,589.95,33.36,0000 0000 0000 0000 000000
2017-08-05 07:44:39,0.24,0.39,0.00,25.64,29.58,32.62,13.76,46.52,1014.41,2023.00,3355.95,2966.69,3387.05,599.85,589.36,33.41,0000 0000 0000 0000 000000
2017-08-05 07:49:41,0.02,0.40,0.00,25.66,29.61,32.62,13.70,46.42,1014.54,2023.00,3355.00,2965.28,3385.98,600.01,589.54,33.46,0000 0000 0000 0000 000000
2017-08-05 07:54:42,0.02,0.40,0.00,25.68,29.64,32.66,13.75,46.42,1014.63,2022.94,3354.57,2965.00,3385.22,599.85,589.36,33.51,0000 0000 0000 0000 000000
2017-08-05 07:59:43,0.52,0.41,0.00,25.73,29.67,32.69,13.75,46.51,1014.66,2022.72,3348.65,2959.07,3378.05,599.81,589.37,33.56,0000 0000 0000 0000 000000
2017-08-05 08:04:44,0.06,0.43,0.00,25.76,29.71,32.73,13.77,46.56,1014.66,2022.11,3344.08,2954.14,3372.17,600.01,589.37,33.62,0000 0000 0000 0000 000000
2017-08-05 08:09:46,0.00,0.43,0.00,25.78,29.74,32.78,13.73,46.19,1014.66,2022.01,3343.92,2953.99,3372.00,599.86,589.14,33.67,0000 0000 0000 0000 000000
2017-08-05 08:14:47,0.01,0.43,0.00,25.81,29.76,32.81,13.79,46.14,1014.66,2022.00,3343.21,2953.95,3371.82,600.22,589.48,33.72,0000 0000 0000 0000 000000
2017-08-05 08:19:48,0.03,0.43,0.00,25.84,29.79,32.83,13.79,46.16,1014.66,2022.00,3343.00,2953.31,3371.08,599.64,588.84,33.77,0000 0000 0000 0000 000000
2017-08-05 08:24:50,0.01,0.43,0.00,25.87,29.82,32.85,13.80,46.10,1014.66,2021.99,3342.70,2953.01,3370.98,599.62,588.77,33.82,0000 0000 0000 0000 000000
2017-08-05 08:29:51,0.02,0.43,0.00,25.91,29.85,32.89,13.74,45.98,1014.67,2021.93,3342.03,2952.92,3370.29,600.14,589.25,33.87,0000 0000 0000 0000 000000
2017-08-05 08:34:52,-0.01,0.43,0.00,25.96,29.88,32.91,13.71,46.03,1014.68,2021.58,3341.85,2952.29,3370.00,599.84,588.97,33.92,0000 0000 0000 0000 000000
2017-08-05 08:39:54,-0.01,0.43,0.00,26.01,29.92,32.94,13.72,46.06,1014.67,2021.17,3341.11,2952.00,3369.69,600.05,588.93,33.97,0000 0000 0000 0000 000000
2017-08-05 08:44:55,0.00,0.43,0.00,26.06,29.96,32.94,13.76,46.02,1014.68,2021.01,3341.00,2951.96,3369.06,599.90,588.71,34.02,0000 0000 0000 0000 000000
2017-08-05 08:49:56,0.03,0.43,0.00,26.12,29.99,32.97,13.74,46.10,1014.68,2021.00,3340.69,2951.46,3368.93,599.97,588.70,34.07,0000 0000 0000 0000 000000
2017-08-05 08:54:57,0.02,0.43,0.00,26.18,30.03,32.97,13.79,46.14,1014.74,2021.00,3340.02,2951.00,3368.13,599.84,588.52,34.12,0000 0000 0000 0000 000000
2017-08-05 08:59:58,0.00,0.43,0.00,26.22,30.07,32.99,13.69,46.26,1014.85,2020.93,3339.95,2950.84,3367.99,599.81,588.41,34.17,0000 0000 0000 0000 000000
2017-08-05 09:04:59,0.01,0.43,0.00,26.28,30.11,33.05,13.73,46.12,1015.06,2020.59,3339.22,2950.16,3367.42,599.80,588.49,34.22,0000 0000 0000 0000 000000
2017-08-05 09:10:00,-0.03,0.43,0.00,26.34,30.15,33.03,13.80,46.29,1015.15,2020.09,3338.91,2949.98,3367.00,600.01,588.55,34.27,0000 0000 0000 0000 000000
2017-08-05 09:15:02,0.04,0.43,0.00,26.38,30.19,33.04,13.76,46.11,1015.15,2020.00,3338.20,2949.58,3366.54,600.12,588.52,34.32,0000 0000 0000 0000 000000
2017-08-05 09:20:03,0.01,0.43,0.00,26.43,30.23,33.08,13.76,46.34,1015.15,2020.00,3337.97,2949.02,3366.01,599.93,588.42,34.37,0000 0000 0000 0000 000000
2017-08-05 09:25:04,0.02,0.43,0.00,26.47,30.26,33.11,13.78,46.31,1015.15,2019.99,3337.27,2948.98,3365.74,599.89,588.22,34.42,0000 0000 0000 0000 000000
2017-08-05 09:30:05,0.02,0.44,0.00,26.51,30.31,33.10,13.72,46.18,1015.15,2019.94,3336.93,2948.32,3365.06,600.10,588.30,34.47,0000 0000 0000 0000 000000
2017-08-05 09:35:06,-0.02,0.44,0.00,26.55,30.34,33.20,13.67,45.92,1015.15,2019.58,3336.15,2948.00,3364.81,599.87,588.02,34.52,0000 0000 0000 0000 000000
2017-08-05 09:40:07,-0.02,0.43,0.00,26.58,30.38,33.23,13.78,46.15,1015.15,2019.08,3335.97,2947.80,3364.06,600.20,588.26,34.58,0000 0000 0000 0000 000000
2017-08-05 09:45:09,0.34,0.44,0.00,26.63,30.42,33.24,13.72,46.13,1015.15,2019.00,3332.61,2944.46,3360.48,599.69,587.73,34.63,0000 0000 0000 0000 000000
2017-08-05 09:50:10,0.10,0.46,0.00,26.68,30.46,33.22,13.77,46.15,1015.16,2019.00,3328.86,2940.71,3355.64,599.82,587.70,34.68,0000 0000 0000 0000 000000
2017-08-05 09:55:11,0.02,0.46,0.00,26.74,30.50,33.23,13.73,46.16,1015.17,2018.98,3328.08,2940.04,3355.01,600.03,587.86,34.73,0000 0000 0000 0000 000000
2017-08-05 10:00:13,-0.00,0.46,0.00,26.80,30.54,33.24,13.71,46.21,1015.17,2018.93,3327.98,2940.00,3354.96,599.97,587.59,34.78,0000 0000 0000 0000 000000
2017-08-05 10:05:14,-0.01,0.46,0.00,26.86,30.58,33.21,13.72,46.18,1015.21,2018.38,3327.23,2939.49,3354.15,599.95,587.53,34.83,0000 0000 0000 0000 000000
2017-08-05 10:10:15,-0.00,0.46,0.00,26.92,30.62,33.20,13.76,45.98,1015.21,2018.06,3326.96,2939.01,3353.77,600.23,587.72,34.88,0000 0000 0000 0000 000000
2017-08-05 10:15:17,0.03,0.46,0.00,26.97,30.67,33.21,13.74,46.19,1015.24,2018.00,3326.19,2938.71,3353.05,600.21,587.56,34.93,0000 0000 0000 0000 000000
2017-08-05 10:20:18,0.01,0.46,0.00,27.03,30.71,33.24,13.72,46.23,1015.38,2018.00,3325.97,2938.05,3352.88,600.14,587.39,34.98,0000 0000 0000 0000 000000
2017-08-05 10:25:20,0.02,0.46,0.00,27.10,30.75,33.26,13.69,46.04,1015.46,2017.98,3325.21,2937.95,3352.13,600.01,587.23,35.03,0000 0000 0000 0000 000000
2017-08-05 10:30:21,-0.02,0.46,0.00,27.16,30.80,33.28,13.69,46.17,1015.49,2017.56,3324.89,2937.20,3351.84,600.14,587.30,35.08,0000 0000 0000 0000 000000
2017-08-05 10:35:22,-0.00,0.46,0.00,27.21,30.85,33.37,13.67,46.00,1015.61,2017.08,3324.12,2936.99,3351.08,599.86,586.89,35.13,0000 0000 0000 0000 000000
2017-08-05 10:40:23,0.03,0.46,0.00,27.22,30.89,33.43,13.66,46.08,1015.64,2017.00,3323.75,2936.50,3350.75,599.82,587.04,35.18,0000 0000 0000 0000 000000
2017-08-05 10:45:24,0.02,0.46,0.00,27.26,30.94,33.47,13.67,45.99,1015.64,2017.00,3322.99,2936.01,3350.03,600.08,587.20,35.23,0000 0000 0000 0000 000000
2017-08-05 10:50:26,0.04,0.46,0.00,27.35,30.99,33.53,13.66,46.15,1015.64,2016.96,3322.20,2935.57,3349.51,600.19,587.03,35.28,0000 0000 0000 0000 000000
2017-08-05 10:55:27,-0.03,0.46,0.00,27.47,31.03,33.54,13.68,46.15,1015.64,2016.63,3321.98,2935.02,3349.01,600.06,586.67,35.33,0000 0000 0000 0000 000000
2017-08-05 11:00:29,-0.00,0.46,0.00,27.62,31.08,33.63,13.63,46.01,1015.65,2016.08,3321.37,2934.86,3348.51,599.80,586.13,35.38,0000 0000 0000 0000 000000
2017-08-05 11:05:31,0.02,0.46,0.00,27.77,31.13,33.64,13.70,46.06,1015.66,2016.01,3320.99,2934.14,3348.01,599.96,586.00,35.43,0000 0000 0000 0000 000000
2017-08-05 11:10:32,0.03,0.46,0.00,27.94,31.18,33.71,13.67,46.02,1015.70,2016.00,3320.29,2933.97,3347.42,599.80,585.61,35.49,0000 0000 0000 0000 000000
2017-08-05 11:15:33,0.02,0.47,0.00,28.09,31.23,33.78,13.68,45.94,1015.83,2015.99,3319.99,2933.38,3347.00,600.42,585.92,35.54,0000 0000 0000 0000 000000
2017-08-05 11:20:34,-0.02,0.47,0.00,28.21,31.28,33.84,13.56,45.97,1016.01,2015.71,3319.38,2933.00,3346.45,599.87,585.17,35.59,0000 0000 0000 0000 000000
2017-08-05 11:25:35,-0.01,0.46,0.00,28.32,31.33,33.90,13.66,45.83,1016.13,2015.10,3318.82,2932.40,3345.90,600.19,585.41,35.64,0000 0000 0000 0000 000000
2017-08-05 11:30:36,0.03,0.47,0.00,28.40,31.37,33.98,13.61,45.74,1016.13,2015.00,3317.87,2931.75,3344.84,600.10,585.18,35.69,0000 0000 0000 0000 000000
2017-08-05 11:35:38,0.10,0.47,0.00,28.45,31.42,34.03,13.65,46.01,1016.14,2014.94,3316.29,2930.11,3343.11,599.68,584.65,35.74,0000 0000 0000 0000 000000
2017-08-05 11:40:39,-0.03,0.47,0.00,28.40,31.46,34.13,13.64,45.87,1016.16,2014.43,3315.79,2929.80,3342.58,599.76,584.90,35.79,0000 0000 0000 0000 000000
2017-08-05 11:45:41,0.02,0.47,0.00,28.31,31.51,34.23,13.57,45.96,1016.24,2014.05,3314.89,2929.05,3341.85,599.74,585.08,35.84,0000 0000 0000 0000 000000
2017-08-05 11:50:42,0.05,0.47,0.00,28.27,31.55,34.33,13.71,46.05,1016.52,2014.00,3314.01,2928.21,3340.99,600.18,585.84,35.89,0000 0000 0000 0000 000000
2017-08-05 11:55:43,0.03,0.48,0.00,28.27,31.59,34.45,13.71,46.04,1016.60,2014.00,3313.14,2927.99,3340.18,600.15,585.70,35.94,0000 0000 0000 0000 000000
2017-08-05 12:00:45,0.01,0.48,0.00,28.26,31.62,34.62,13.67,45.86,1016.61,2013.96,3313.00,2927.68,3340.00,599.74,585.38,35.99,0000 0000 0000 0000 000000
2017-08-05 12:05:46,-0.01,0.48,0.00,28.22,31.65,34.73,13.68,45.81,1016.60,2013.60,3312.60,2927.04,3339.63,600.17,585.80,36.04,0000 0000 0000 0000 000000
2017-08-05 12:10:48,-0.00,0.47,0.00,28.13,31.68,34.83,13.72,45.88,1016.54,2013.14,3311.80,2926.71,3338.88,600.22,585.99,36.09,0000 0000 0000 0000 000000
2017-08-05 12:15:49,0.06,0.48,0.00,28.03,31.71,34.86,13.73,46.03,1016.44,2013.01,3310.37,2925.72,3337.78,600.50,586.48,36.14,0000 0000 0000 0000 000000
2017-08-05 12:20:50,0.08,0.48,0.00,27.93,31.73,34.87,13.68,45.83,1016.37,2013.00,3308.54,2924.47,3336.41,599.59,585.80,36.19,0000 0000 0000 0000 000000
2017-08-05 12:25:52,0.08,0.49,0.00,27.84,31.75,34.88,13.73,45.87,1016.30,2013.00,3306.76,2923.31,3335.01,600.23,586.49,36.24,0000 0000 0000 0000 000000
2017-08-05 12:30:53,0.05,0.49,0.00,27.77,31.77,34.88,13.71,46.10,1016.36,2012.97,3305.46,2922.37,3334.04,600.17,586.48,36.29,0000 0000 0000 0000 000000
2017-08-05 12:35:54,0.01,0.49,0.00,27.71,31.79,34.92,13.74,46.14,1016.44,2012.95,3305.00,2922.01,3333.64,600.02,586.62,36.34,0000 0000 0000 0000 000000
2017-08-05 12:40:56,0.01,0.49,0.00,27.66,31.80,34.92,13.75,46.23,1016.47,2012.88,3304.56,2921.93,3333.05,599.99,586.70,36.40,0000 0000 0000 0000 000000
2017-08-05 12:45:57,-0.01,0.49,0.00,27.63,31.82,34.93,13.74,46.18,1016.49,2012.54,3304.01,2921.22,3332.91,600.07,586.91,36.45,0000 0000 0000 0000 000000
2017-08-05 12:50:58,-0.01,0.49,0.00,27.62,31.82,34.92,13.69,46.13,1016.53,2012.09,3303.73,2921.00,3332.18,599.90,586.62,36.50,0000 0000 0000 0000 000000
2017-08-05 12:56:00,0.01,0.49,0.00,27.61,31.83,34.93,13.76,46.23,1016.61,2012.01,3303.04,2920.91,3331.98,599.92,586.69,36.55,0000 0000 0000 0000 000000